Tracking 22454 objects as of 5-Mar-2021
HD Live streaming from Space Station
objects crossing your sky now

FLOCK 4A 20

Track FLOCK 4A 20 now!
10-day predictions
FLOCK 4A 20 is classified as:


NORAD ID: 44091
Int'l Code: 2019-018P
Perigee: 491.1 km
Apogee: 508.1 km
Inclination: 97.4 °
Period: 94.5 minutes
Semi major axis: 6870 km
RCS: Unknown
Launch date: April 1, 2019
Source: United States (US)
Launch site: SRIHARIKOTA (SRI)
aabbcc
Your satellite tracking list
Your tracking list is empty




NASA's NSSDC Master Catalog

Two Line Element Set (TLE):
1 44091U 19018P   21063.92433926  .00003870  00000-0  16030-3 0  9998
2 44091  97.3745 127.0586 0012378 344.1850  15.8999 15.24444556107076
Source of the keplerian elements: AFSPC